Regional Weather Roundup
Issued by NWS Sterling, VA

Home | Current Version | Previous Version | Text Only | Print | Product List | Glossary On
Versions: 1 2 3 4 5 6 7 8 9 10 11 12 13 14 15 16 17 18 19 20 21 22 23 24 25 26 27 28 29 30 31 32 33 34 35 36 37 38 39 40 41 42 43 44 45 46 47 48 49 50
000
ASUS41 KLWX 261911
RWRLWX

REGIONAL WEATHER ROUNDUP
NATIONAL WEATHER SERVICE BALTIMORE MD/WASHINGTON DC
300 PM EDT WED JUL 26 2017

Note: "FAIR" indicates few or no clouds below 12,000 feet
with no significant weather and/or obstructions to visibility.
 TC=TEMPERATURE CELSIUS

 * =Non NWS site. Station does not report precipitation (e.g. rain,
    snow, etc.), thunder, or fog.

DCZ001-MDZ009-015-VAZ040>042-051-053>054-262000-
WASHINGTON METRO

CITY           SKY/WX    TMP DP  RH WIND       PRES   REMARKS
WASHINGTON NAT MOSUNNY   83  63  50 VRB5      30.15F
DULLES         PTSUNNY   79  62  56 S6        30.15F
ANDREWS AFB    CLOUDY    83  60  46 E8        30.14F
FT BELVOIR     SUNNY     85  61  44 CALM      30.15F
QUANTICO       PTSUNNY   83  66  56 SE3       30.15F
COLLEGE PARK*  PTSUNNY   82  63  53 E3        30.15F
LEESBURG*      MOSUNNY   82  64  54 SE3       30.16F
MANASSAS*      PTSUNNY   81  65  58 CALM      30.15F
GAITHERSBURG*  PTSUNNY   84  63  49 S3        30.17F

$$

MDZ006>007-011-014-262000-
BALTIMORE METRO

CITY           SKY/WX    TMP DP  RH WIND       PRES   REMARKS
BWI AIRPORT    PTSUNNY   79  66  64 E10       30.15F
MD SCIENCE CTR   N/A     82  66  58 MISG      30.15F
MARTIN STATE   MOSUNNY   81  70  69 E6        30.18F
ANNAPOLIS      MOSUNNY   80  71  74 SE10      30.16F
FORT MEADE*    PTSUNNY   79  64  61 SE5       30.18F

$$

MDZ012-015-019>023-262000-
MARYLAND EASTERN SHORE

CITY           SKY/WX    TMP DP  RH WIND       PRES   REMARKS
OCEAN CITY     PTSUNNY   76  66  71 E13       30.19S
SALISBURY      CLOUDY    76  66  71 E10       30.17S
BAY BRIDGE AP* CLOUDY    81  66  61 SW7       30.16F
CAMBRIDGE*     PTSUNNY   79  68  69 E9        30.15F
EASTON*        PTSUNNY   82  66  57 NE5       30.20F

$$

MDZ017>025-262000-
SOUTHERN MARYLAND

CITY           SKY/WX    TMP DP  RH WIND       PRES   REMARKS
PATUXENT RIVER MOSUNNY   81  68  64 E9        30.15F
ST INIGOES     MOSUNNY   81  68  64 S9        30.14F
LEONARDTOWN*   MOSUNNY   79  64  61 CALM      30.17F

$$

MDZ003>005-262000-
NORTH CENTRAL MARYLAND

CITY           SKY/WX    TMP DP  RH WIND       PRES   REMARKS
FREDERICK*     MOSUNNY   82  61  47 S3        30.18F
HAGERSTOWN APT PTSUNNY   79  59  50 SE6       30.16F
WESTMINSTER*   MOSUNNY   86  63  45 SE3       30.17F

$$

MDZ501>502-262000-
WESTERN MARYLAND

CITY           SKY/WX    TMP DP  RH WIND       PRES   REMARKS
OAKLAND*       CLOUDY    75  54  46 CALM      30.19F
CUMBERLAND*    MOSUNNY   81  63  54 CALM      30.18F

$$

VAZ025>031-262000-
SHENANDOAH VALLEY

CITY           SKY/WX    TMP DP  RH WIND       PRES   REMARKS
WINCHESTER*    PTSUNNY   79  63  57 SE3       30.16F
FRONT ROYAL*   CLOUDY    81  61  50 NE3       30.13F
LURAY*         MOSUNNY   82  63  51 S3        30.15F
NEW MARKET*    PTSUNNY   82  62  50 SE8       30.13F
STAUNTON*      CLOUDY    81  63  53 S7        30.18F
WAYNESBORO*    CLOUDY    79  64  61 SW5       30.19F

$$

WVZ021-048>050-054>055-262000-
EASTERN WEST VIRGINIA PANHANDLE

CITY           SKY/WX    TMP DP  RH WIND       PRES   REMARKS
MARTINSBURG    MOSUNNY   78  62  57 VRB5      30.15F
PETERSBURG*    MOSUNNY   86  65  49 E6        30.12F

$$

VAZ036>039-050-262000-
CENTRAL FOOTHILLS

CITY           SKY/WX    TMP DP  RH WIND       PRES   REMARKS
CHARLOTTESVILL CLOUDY    84  64  50 CALM      30.15F
CULPEPER*      CLOUDY    85  64  48 SW3       30.15F
ORANGE*        PTSUNNY   84  63  48 SW3       30.15F
GORDONSVILLE*  CLOUDY    83  64  53 S7        30.14F
WARRENTON*     PTSUNNY   86  57  36 SW5       30.15F

$$

VAZ055>057-262000-
NORTH AND CENTRAL PIEDMONT

CITY           SKY/WX    TMP DP  RH WIND       PRES   REMARKS
FREDERICKSBRG* MOSUNNY   84  67  55 NE6       30.13F
STAFFORD*      SUNNY     84  63  48 CALM      30.19F

$$

NCZ024-NYZ072-PAZ021-071-VAZ022-071-262000-
OTHER REGIONAL OBSERVATIONS

CITY           SKY/WX    TMP DP  RH WIND       PRES   REMARKS
NEW YORK CITY  SUNNY     75  57  53 SW5       30.22F
PHILADELPHIA   MOSUNNY   80  60  50 VRB7      30.18F
PITTSBURGH     PTSUNNY   80  60  50 VRB3      30.13F
ROANOKE        PTSUNNY   80  64  58 S7        30.19F
RICHMOND       MOSUNNY   88  63  43 CALM      30.13F
RALEIGH        MOSUNNY   89  65  44 CALM      30.15F HX  91

$$

ANZ530>537-262000-
MARINE OBSERVATIONS

STATION/POSITION TIME  TEMP    WIND        PRES
                       AIR SEA DIR/SP/G
                 (UTC) (F)     (DEG/KT/KT) (MB)
THOMAS PT LIGHT  1900   77 82  110/  4/  5   N/A
BALT KEY BRIDGE  1848   76     120/  9/ 11 1021.2F
COVE POINT       1848   77     180/  8/ 10 1021.8F
LEWISETTA        1848   78 84  140/  8/ 10 1021.1F
SOLOMONS ISLAND  1848   78 84  100/  7/  9   N/A
PINEY POINT      1842          160/  8/ 11   N/A

$$




USA.gov is the U.S. government's official web portal to all federal, state and local government web resources and services.